Location: Oshawa
(43.9000°N, 78.8670°W)
Time: 17:32:51
(UTC-04:00)

S-56A Canister/Altair - All Passes

Search period start: 24 April 2014 00:00
Search period end: 04 May 2014 00:00
Orbit: 632 x 2503 km, 38.9° (Epoch: 23 April)

Date Brightness Start Highest point End Pass type
(mag) Time Alt. Az. Time Alt. Az. Time Alt. Az.
24 Apr - 05:30:03 10° SSW 05:33:02 18° SSE 05:36:12 10° ESE visible
24 Apr - 07:31:29 10° WSW 07:35:53 46° SSE 07:41:33 10° E daylight
24 Apr - 09:34:15 10° W 09:39:24 49° S 09:46:47 10° ESE daylight
24 Apr - 11:37:42 10° W 11:43:19 29° SSW 11:51:04 10° SSE daylight
25 Apr - 04:58:33 10° S 05:01:04 15° SSE 05:03:38 10° ESE visible
25 Apr - 06:59:39 10° WSW 07:03:53 42° SSE 07:09:03 10° E daylight
25 Apr - 09:02:24 10° W 09:07:16 49° S 09:14:04 10° ESE daylight
25 Apr - 11:05:44 10° W 11:11:03 30° SSW 11:18:24 10° SE daylight
25 Apr - 13:13:06 10° SW 13:15:04 11° SW 13:17:11 10° SSW daylight
26 Apr - 04:27:09 10° S 04:29:05 13° SSE 04:31:01 10° ESE visible
26 Apr - 06:27:48 10° SW 06:31:54 38° SSE 06:36:38 10° E daylight
26 Apr - 08:30:33 10° W 08:35:11 49° S 08:41:26 10° ESE daylight
26 Apr - 10:33:48 10° W 10:38:50 31° SSW 10:45:46 10° SE daylight
26 Apr - 12:40:12 10° SW 12:42:45 12° SSW 12:45:35 10° SSW daylight
27 Apr - 03:56:03 10° SSE 03:57:05 11° SSE 03:58:07 10° SE visible
27 Apr - 05:55:55 10° SW 05:59:56 34° SSE 06:04:18 10° E daylight
27 Apr - 07:58:40 10° WSW 08:03:08 49° S 08:08:53 10° ESE daylight
27 Apr - 10:01:53 10° W 10:06:40 32° SSW 10:13:10 10° SE daylight
27 Apr - 12:07:38 10° SW 12:10:28 13° SSW 12:13:41 10° S daylight
28 Apr - 05:24:00 10° SW 05:27:58 31° SSE 05:32:03 10° E visible
28 Apr - 07:26:47 10° WSW 07:31:06 48° S 07:36:26 10° ESE daylight
28 Apr - 09:29:58 10° W 09:34:32 32° SSW 09:40:38 10° SE daylight
28 Apr - 11:35:15 10° WSW 11:38:14 13° SSW 11:41:40 10° S daylight
29 Apr - 04:52:03 10° SW 04:56:00 28° SSE 04:59:51 10° E visible
29 Apr - 06:54:51 10° WSW 06:59:06 47° S 07:04:03 10° ESE daylight
29 Apr - 08:58:04 10° W 09:02:27 33° SSW 09:08:09 10° SE daylight
29 Apr - 11:02:58 10° WSW 11:06:02 14° SSW 11:09:35 10° S daylight
30 Apr - 04:20:03 10° SW 04:24:01 26° SSE 04:27:42 10° ESE visible
30 Apr - 06:22:53 10° WSW 06:27:07 46° S 06:31:46 10° ESE daylight
30 Apr - 08:26:09 10° W 08:30:23 35° SSW 08:35:43 10° SE daylight
30 Apr - 10:30:46 10° WSW 10:33:52 15° SSW 10:37:29 10° S daylight
01 May - 03:48:01 10° SSW 03:52:01 24° SSE 03:55:37 10° ESE visible
01 May - 05:50:51 10° WSW 05:55:08 45° S 05:59:33 10° ESE daylight
01 May - 07:54:13 10° W 07:58:21 36° SSW 08:03:22 10° SE daylight
01 May - 09:58:38 10° WSW 10:01:43 15° SSW 10:05:22 10° S daylight
02 May - 03:15:56 10° SSW 03:20:01 22° SSE 03:23:33 10° ESE visible
02 May - 05:18:46 10° WSW 05:23:09 43° S 05:27:26 10° ESE visible
02 May - 07:22:15 10° W 07:26:21 37° SSW 07:31:05 10° SE daylight
02 May - 09:26:31 10° WSW 09:29:37 16° SSW 09:33:15 10° S daylight
03 May - 02:43:47 10° SSW 02:47:58 21° SSE 02:51:31 10° ESE visible
03 May - 04:46:37 10° WSW 04:51:11 42° S 04:55:22 10° ESE visible
03 May - 06:50:14 10° W 06:54:21 39° S 06:58:53 10° ESE daylight
03 May - 08:54:25 10° WSW 08:57:33 17° SSW 09:01:10 10° SSE daylight
